Location: Unspecified
(0.0000°N, 0.0000°E)
Time: 17:57:38
(UTC+02:00)

Resurs 01 Rocket - Visible Passes

Search period start: 25 July 2014 00:00
Search period end: 04 August 2014 00:00
Orbit: 637 x 646 km, 98.2° (Epoch: 24 July)

Date Brightness Start Highest point End Pass type
(mag) Time Alt. Az. Time Alt. Az. Time Alt. Az.
25 Jul 4.0 20:25:50 10° SSW 20:29:32 26° WSW 20:33:13 10° NW visible
26 Jul 4.3 07:02:01 10° ENE 07:05:09 19° ESE 07:08:18 10° SSE visible
26 Jul 4.7 20:51:30 10° SW 20:53:19 12° WSW 20:55:08 10° WNW visible
27 Jul 3.0 07:24:50 10° NNE 07:28:57 41° ESE 07:33:06 10° S visible
30 Jul 4.4 07:01:06 10° ENE 07:04:09 19° ESE 07:07:11 10° SSE visible
30 Jul 4.7 20:50:17 10° SW 20:52:19 13° WSW 20:54:21 10° WNW visible
31 Jul 3.1 07:23:51 10° NNE 07:27:57 39° ESE 07:32:03 10° S visible
03 Aug 4.4 07:00:12 10° ENE 07:03:08 18° ESE 07:06:04 10° SE visible
03 Aug 4.6 20:49:05 10° SW 20:51:19 14° WSW 20:53:32 10° WNW visible
